Weather History for Whiting Fld NAS, FL

Change the Weather History Date:

Friday, October 28, 2011

  Actual Average Record
Temperature  
Mean Temperature 66 °F -  
Max Temperature 82 °F 75 °F 86 °F (1996)
Min Temperature 51 °F 55 °F 37 °F (1997)
Cooling Degree Days 2    
Growing Degree Days 16 (Base 50)    
Moisture  
Dew Point 56 °F    
Average Humidity 85    
Maximum Humidity 100    
Minimum Humidity 44    
Precipitation  
Precipitation 0.00 in - - ()
Sea Level Pressure  
Sea Level Pressure 29.91 in    
Wind  
Wind Speed 2 mph (NW)    
Max Wind Speed 15 mph    
Max Gust Speed 24 mph    
Visibility 6 miles    
Events Fog    
Averages and records for this station are not official NWS values.
T = Trace of Precipitation, MM = Missing Value Source: NWS Daily Summary

Daily Weather History Graph

Daily Weather History Graph

Search for Another Location

Airport:

Trip Planner

Search our weather history database for the weather conditions in past years. The results will help you decide how hot, cold, wet, or windy it might be!

Date:

Astronomy

Oct. 28, 2011 Rise Set
Actual Time 6:59 AM CDT 6:03 PM CDT
Civil Twilight 6:34 AM CDT 6:28 PM CDT
Nautical Twilight 6:06 AM CDT 6:56 PM CDT
Astronomical Twilight 5:38 AM CDT 7:24 PM CDT
Moon 9:03 AM CDT (10/28) 7:38 PM CDT (10/28)
Length of Visible Light 11h 53m
Length of Day
11h 04m
Waxing Crescent, 5% of the Moon is Illuminated
Oct 28
Waxing Crescent
Nov 2
First Quarter
Nov 10
Full
Nov 18
Last Quarter
Nov 25
New

Hourly Weather History & Observations

Time (CDT) Temp. Heat Index Dew Point Humidity Pressure Visibility Wind Dir Wind Speed Gust Speed Precip Events Conditions
12:56 AM 55.9 °F - 55.0 °F 97% 29.88 in 6.0 mi Calm Calm - N/A   Clear
1:41 AM 53.6 °F - 53.6 °F 100% 29.91 in 2.0 mi Calm Calm - N/A   Clear
1:54 AM 57.2 °F - 55.4 °F 94% 29.91 in 6.0 mi Calm Calm - N/A   Clear
1:56 AM 57.0 °F - 57.0 °F 100% 29.87 in 6.0 mi Calm Calm - N/A   Clear
2:13 AM 53.6 °F - 53.6 °F 100% 29.91 in 1.8 mi Calm Calm - N/A   Clear
2:23 AM 55.4 °F - 53.6 °F 94% 29.91 in 3.0 mi Calm Calm - N/A   Clear
2:52 AM 53.6 °F - 53.6 °F 100% 29.91 in 1.8 mi Calm Calm - N/A   Clear
2:56 AM 53.1 °F - 53.1 °F 100% 29.87 in 1.5 mi Calm Calm - N/A   Clear
3:11 AM 51.8 °F - 51.8 °F 100% 29.92 in 0.2 mi Calm Calm - N/A Fog Fog
3:56 AM 54.0 °F - 54.0 °F 100% 29.88 in 0.2 mi Calm Calm - N/A Fog Fog
4:19 AM 53.6 °F - 51.8 °F 94% 29.92 in 1.5 mi Calm Calm - N/A   Partly Cloudy
4:21 AM 51.8 °F - 51.8 °F 100% 29.92 in 3.0 mi Calm Calm - N/A   Partly Cloudy
4:56 AM 53.1 °F - 53.1 °F 100% 29.89 in 5.0 mi Calm Calm - N/A   Clear
5:23 AM 53.6 °F - 53.6 °F 100% 29.94 in 2.0 mi NNW 3.5 mph - N/A   Clear
5:56 AM 54.0 °F - 54.0 °F 100% 29.91 in 2.0 mi NW 3.5 mph - N/A   Clear
6:10 AM 53.6 °F - 53.6 °F 100% 29.94 in 2.0 mi NNW 3.5 mph - N/A   Partly Cloudy
6:40 AM 53.6 °F - 53.6 °F 100% 29.94 in 1.0 mi North 5.8 mph - N/A   Scattered Clouds
6:56 AM 55.0 °F - 55.0 °F 100% 29.90 in 1.5 mi North 5.8 mph - N/A   Scattered Clouds
7:13 AM 57.2 °F - 55.4 °F 94% 29.94 in 2.5 mi North 5.8 mph - N/A   Scattered Clouds
7:30 AM 57.2 °F - 57.2 °F 100% 29.95 in 3.0 mi North 3.5 mph - N/A   Scattered Clouds
7:56 AM 57.9 °F - 57.0 °F 97% 29.91 in 3.0 mi Calm Calm - N/A   Scattered Clouds
8:08 AM 60.8 °F - 59.0 °F 94% 29.95 in 4.0 mi Calm Calm - N/A   Scattered Clouds
8:30 AM 62.6 °F - 60.8 °F 94% 29.96 in 5.0 mi Calm Calm - N/A   Partly Cloudy
8:56 AM 64.0 °F - 60.1 °F 87% 29.94 in 6.0 mi Calm Calm - N/A   Partly Cloudy
9:56 AM 71.1 °F - 62.1 °F 73% 29.94 in 9.0 mi Calm Calm - N/A   Scattered Clouds
10:56 AM 77.0 °F - 61.0 °F 58% 29.93 in 10.0 mi Calm Calm - N/A   Scattered Clouds
11:56 AM 80.1 °F 81.1 °F 61.0 °F 52% 29.90 in 10.0 mi NW 5.8 mph - N/A   Scattered Clouds
12:56 PM 82.0 °F 82.0 °F 57.9 °F 44% 29.87 in 10.0 mi WNW 6.9 mph - N/A   Scattered Clouds
1:56 PM 81.0 °F 81.3 °F 59.0 °F 47% 29.84 in 10.0 mi West 9.2 mph - N/A   Mostly Cloudy
2:56 PM 81.0 °F 81.3 °F 59.0 °F 47% 29.83 in 10.0 mi Calm Calm - N/A   Mostly Cloudy
3:56 PM 80.1 °F 80.9 °F 60.1 °F 50% 29.83 in 10.0 mi SW 6.9 mph - N/A   Mostly Cloudy
4:56 PM 77.0 °F - 61.0 °F 58% 29.85 in 10.0 mi SSW 6.9 mph - N/A   Mostly Cloudy
5:56 PM 75.0 °F - 63.0 °F 66% 29.86 in 10.0 mi NW 9.2 mph - N/A   Mostly Cloudy
6:56 PM 70.0 °F - 62.1 °F 76% 29.89 in 10.0 mi NW 11.5 mph - N/A   Overcast
7:56 PM 66.0 °F - 59.0 °F 78% 29.92 in 9.0 mi NNW 10.4 mph 17.3 mph N/A   Overcast
8:25 PM 64.4 °F - 57.2 °F 77% 29.97 in 9.0 mi NNW 10.4 mph - N/A   Mostly Cloudy
8:56 PM 63.0 °F - 55.9 °F 78% 29.94 in 9.0 mi NNW 8.1 mph 18.4 mph N/A   Mostly Cloudy
9:56 PM 60.1 °F - 53.1 °F 78% 29.96 in 10.0 mi NNW 11.5 mph 17.3 mph N/A   Overcast
10:38 PM 57.2 °F - 53.6 °F 88% 30.01 in 10.0 mi NNW 15.0 mph 23.0 mph N/A   Overcast
10:56 PM 57.0 °F - 52.0 °F 83% 29.97 in 10.0 mi NNW 13.8 mph 23.0 mph N/A   Overcast
11:56 PM 55.9 °F - 50.0 °F 80% 29.98 in 10.0 mi North 12.7 mph 24.2 mph N/A   Overcast